Wind_Speed
43 44 43 41 40 40 41 42 42 42 43 44 44 43 43 43 43 43 44 44 44 45 46 45 44 43 42 41 40 39 38 37 37 37 36 36 35 36 36 35 35 35 36 37
41 41 40 39 39 39 39 40 40 41 41 43 44 44 44 45 44 43 44 44 44 45 45 44 43 43 42 42 41 41 40 40 39 38 38 38 37 37 37 37 37 37 38 38
37 37 38 38 38 38 37 38 38 39 40 42 44 46 45 45 44 43 43 44 45 45 45 44 43 42 42 42 42 41 41 41 40 40 39 39 39 39 39 39 39 39 39 40
36 36 37 37 36 35 34 34 35 37 39 40 42 45 45 44 45 43 42 42 43 44 44 43 43 42 43 43 42 42 42 42 41 40 40 40 40 40 40 40 40 40 41 42
35 35 35 34 33 33 32 32 33 34 36 38 39 42 43 45 44 42 41 41 42 43 43 43 42 42 42 42 42 42 42 42 42 41 41 40 40 40 40 40 41 41 42 43
32 33 34 33 32 31 31 30 31 33 34 37 37 39 40 42 42 41 41 41 42 42 43 43 42 42 42 42 42 41 41 42 41 41 40 40 40 40 40 41 41 42 43 44
29 31 32 31 31 30 30 30 30 31 34 34 34 38 37 38 40 41 42 42 42 42 42 42 42 42 42 42 42 41 41 40 40 39 39 40 40 41 41 42 42 43 43 44
25 28 29 30 29 28 28 29 29 30 30 30 32 35 34 36 39 40 41 42 42 42 42 42 42 41 41 41 41 41 40 40 40 40 41 41 42 42 43 43 43 44 44 44
22 24 25 26 26 26 27 28 27 28 29 30 32 32 33 34 36 39 40 40 40 41 42 42 42 42 41 41 40 41 41 41 42 42 42 42 42 43 43 43 43 43 43 43
20 21 23 23 24 25 25 26 26 26 27 29 29 30 30 31 33 36 38 39 40 41 41 41 41 42 42 42 42 42 42 42 43 43 42 42 42 42 42 42 42 42 42 41
17 19 21 23 24 23 24 24 25 25 27 27 28 28 28 29 31 33 35 38 40 41 41 41 41 41 41 41 41 41 41 41 41 41 41 41 41 41 40 40 40 40 40 40
15 17 19 20 22 23 24 24 24 25 26 26 26 25 25 26 28 30 32 35 37 38 40 40 40 40 40 40 40 40 40 40 40 40 39 39 39 38 38 38 38 38 38 38
14 15 17 19 21 22 23 24 24 25 25 26 26 24 24 24 25 27 28 31 33 35 36 38 38 39 39 39 38 38 38 38 37 37 37 36 36 36 36 36 36 36 36 36
13 14 15 17 18 20 20 22 24 25 25 24 24 22 23 24 24 24 25 27 29 31 33 34 35 36 36 36 36 35 35 35 35 34 34 34 34 34 34 34 34 33 33 33
13 13 14 16 18 19 20 21 22 23 22 23 22 23 23 25 26 25 25 26 27 28 30 31 32 33 33 33 33 33 32 32 32 32 32 32 32 32 32 31 31 31 31 31
13 14 14 15 17 19 20 20 20 21 21 22 23 22 23 24 25 25 24 25 26 27 28 28 28 29 29 29 30 30 30 30 30 30 30 30 30 29 29 29 29 29 29 29
14 14 15 16 17 17 18 18 19 19 20 21 21 21 23 23 23 24 24 24 25 25 25 25 25 26 26 27 27 28 28 28 28 28 28 27 27 27 27 27 28 28 28 28
15 16 16 16 17 17 15 17 18 18 18 20 19 20 21 21 21 22 23 23 23 23 23 23 23 24 24 25 25 25 25 26 25 25 25 25 25 25 25 25 25 26 26 26
16 17 17 17 17 16 16 16 16 17 17 17 17 18 18 19 19 20 21 21 22 22 22 22 22 23 23 23 23 23 23 24 24 24 24 23 23 23 23 24 24 24 25 25
17 17 17 17 17 16 16 16 16 16 16 16 16 17 17 18 18 19 20 20 20 20 21 21 21 21 22 22 22 22 22 22 22 22 22 22 22 22 23 23 23 24 24 25
17 17 17 16 16 16 16 16 16 16 16 16 16 17 17 17 18 19 19 19 20 20 20 20 20 20 20 21 21 21 21 21 21 21 21 21 21 22 22 22 23 23 24 24
18 18 17 16 16 16 16 16 16 16 16 16 16 17 17 18 18 19 19 19 19 19 19 20 20 20 20 20 20 20 20 20 20 20 20 20 20 21 21 22 22 22 23 24
19 18 18 17 16 16 16 17 17 16 16 17 17 17 17 17 18 18 19 19 19 19 19 20 20 20 20 20 20 20 20 20 20 20 20 20 20 20 20 21 22 23 23 24
20 20 19 18 17 17 17 17 18 18 18 18 17 17 18 18 18 18 19 19 19 19 19 20 20 20 20 20 20 20 20 20 20 20 20 19 20 20 21 22 23 24 25 26
21 21 20 19 19 18 18 19 18 18 18 19 19 19 18 18 18 19 20 20 20 20 20 21 20 20 21 20 20 20 21 20 20 20 20 20 20 21 22 23 24 25 26 27
22 22 22 21 21 20 19 19 19 19 19 19 19 19 20 20 20 20 21 21 22 22 22 22 22 22 21 21 21 21 21 21 21 21 21 21 22 23 23 24 25 26 27 29
Wind_Direction
194 198 201 204 207 210 215 217 219 219 220 222 222 222 223 224 224 223 223 224 226 227 228 230 233 235 238 240 242 245 247 250 254 258 262 265 269 271 274 275 277 278 280 282
192 195 198 201 205 207 211 214 216 218 220 222 222 222 223 224 225 225 225 226 227 228 229 231 233 236 239 241 244 246 248 251 254 259 262 266 269 271 274 276 277 279 280 281
190 192 195 199 202 207 211 213 216 218 220 223 224 224 224 225 226 226 227 229 230 230 231 233 234 237 239 242 244 247 250 253 256 259 262 266 268 271 273 275 276 278 280 281
188 190 193 197 201 205 210 213 216 219 222 225 226 227 226 227 227 228 229 231 232 233 233 234 236 238 240 243 245 248 251 254 257 259 262 264 267 269 271 273 275 276 278 279
183 187 191 195 199 203 208 212 216 220 225 227 228 230 226 227 228 229 230 232 233 234 234 234 235 238 241 243 246 248 251 254 257 260 262 264 266 268 270 272 274 275 277 278
180 185 188 191 196 201 206 210 216 221 225 228 229 232 227 227 229 229 231 232 233 234 235 235 236 238 240 243 245 248 250 253 256 259 261 264 267 269 271 273 274 276 277 279
179 184 186 191 195 200 206 210 215 221 226 229 230 233 228 225 227 228 230 231 231 233 234 235 236 238 240 242 244 247 249 252 254 258 262 265 268 270 272 273 275 276 278 279
177 184 188 194 199 204 209 214 219 225 230 232 233 234 229 224 225 227 229 231 232 232 234 235 236 238 240 242 243 246 249 252 256 259 263 266 268 269 271 272 274 276 277 279
181 187 191 194 199 207 210 213 220 229 233 235 236 236 232 227 226 227 228 230 231 232 233 235 237 238 240 241 244 247 250 254 257 260 262 264 266 267 269 271 273 275 277 279
189 192 195 197 202 207 212 217 224 230 235 238 240 237 233 229 229 229 229 230 230 231 232 233 236 238 240 242 245 249 252 255 257 259 261 263 265 267 269 271 272 274 276 278
196 202 204 208 209 214 217 220 225 232 237 240 242 239 235 233 232 232 232 232 232 232 233 235 236 239 241 244 247 249 252 254 256 259 261 263 265 267 269 271 273 274 276 278
201 206 211 212 213 218 220 223 229 235 239 241 243 242 237 237 236 236 235 234 234 235 235 237 239 241 243 245 248 250 253 255 257 259 261 263 265 267 269 271 273 275 277 278
207 210 212 214 216 220 223 230 233 236 239 242 243 243 242 241 240 239 238 236 236 237 238 239 241 243 245 247 249 252 254 256 258 260 262 263 265 267 270 272 274 276 277 278
214 215 218 221 223 225 229 232 234 237 241 244 245 244 241 241 242 241 240 239 238 239 240 241 242 244 247 248 250 253 255 257 259 260 262 264 266 268 270 272 274 276 277 279
220 221 225 227 226 228 230 233 236 240 243 245 243 243 240 240 240 239 239 240 239 239 241 242 243 245 247 249 251 253 255 257 259 261 262 264 267 268 270 272 274 277 279 281
230 230 232 232 232 232 234 237 239 241 243 245 244 244 243 239 235 234 235 236 237 239 240 242 244 246 248 250 252 254 256 257 259 260 262 265 266 268 270 272 275 278 280 282
236 236 236 235 236 237 236 237 240 243 243 244 244 241 240 237 233 231 231 233 236 238 240 242 243 246 248 250 252 253 255 256 258 260 262 264 266 268 271 273 276 278 281 283
238 239 240 238 238 240 239 239 242 242 243 244 242 239 239 235 233 231 231 233 236 238 240 242 244 246 248 250 252 253 255 257 258 259 260 262 265 269 272 274 276 279 281 283
238 239 240 240 240 239 238 239 241 242 242 241 238 237 237 235 233 231 231 233 235 237 240 242 244 246 248 249 251 253 254 256 256 257 259 262 265 270 273 275 277 279 281 284
238 238 240 240 241 239 238 239 241 242 240 239 237 236 235 232 230 230 232 234 236 238 241 243 244 246 247 249 251 252 253 254 256 258 260 263 267 270 273 275 276 279 283 286
238 237 237 239 240 239 238 239 239 240 238 236 235 234 232 231 232 235 236 237 239 240 242 243 245 246 248 249 250 251 252 254 256 259 262 265 268 271 274 276 278 280 283 286
239 238 237 239 239 237 238 238 239 239 236 236 235 235 234 235 236 237 238 239 240 241 243 245 246 247 248 249 250 252 254 256 258 260 263 266 269 272 275 277 279 281 285 288
240 240 238 239 240 239 237 238 238 237 237 238 238 237 237 237 238 238 239 240 242 243 245 246 247 248 249 250 252 254 256 258 259 261 264 267 270 273 276 278 280 283 286 288
239 240 239 239 240 239 238 239 239 239 238 238 239 239 238 239 239 240 241 242 243 243 246 247 248 250 251 252 254 255 257 259 261 262 265 268 271 274 277 280 282 284 286 288
239 239 240 239 239 240 240 241 242 242 240 239 239 240 241 241 242 243 244 245 245 247 248 249 250 252 253 253 254 256 257 259 261 263 266 270 273 276 279 282 284 285 287 289
240 240 240 239 239 239 240 243 243 242 241 241 240 242 243 244 245 247 248 247 247 250 251 252 252 254 255 255 255 257 259 261 262 265 267 271 274 277 280 283 285 287 289 290
Height
5638 5649 5659 5670 5680 5688 5696 5703 5710 5717 5723 5730 5736 5743 5748 5752 5758 5765 5771 5776 5781 5787 5792 5797 5802 5806 5810 5813 5816 5818 5821 5823 5825 5826 5827 5828 5829 5829 5829 5829 5828 5827 5826 5825
5638 5648 5659 5667 5675 5682 5689 5696 5703 5710 5717 5723 5728 5734 5740 5744 5751 5758 5764 5769 5775 5780 5785 5791 5795 5799 5802 5805 5808 5810 5813 5815 5817 5818 5820 5821 5821 5821 5821 5821 5820 5819 5818 5816
5638 5648 5655 5663 5671 5678 5686 5693 5700 5706 5711 5716 5722 5727 5733 5739 5745 5751 5757 5763 5768 5773 5778 5783 5788 5791 5794 5797 5800 5802 5805 5807 5809 5811 5812 5813 5813 5813 5813 5812 5812 5810 5809 5808
5637 5645 5653 5661 5669 5676 5683 5690 5696 5701 5706 5711 5716 5721 5729 5734 5739 5745 5752 5757 5762 5766 5771 5776 5780 5783 5786 5789 5792 5794 5796 5798 5800 5802 5803 5804 5805 5805 5805 5804 5803 5802 5800 5799
5636 5644 5652 5660 5667 5674 5680 5686 5692 5697 5701 5705 5710 5715 5723 5727 5733 5740 5746 5750 5754 5759 5764 5768 5772 5775 5778 5781 5784 5786 5788 5790 5792 5793 5794 5795 5796 5796 5796 5795 5794 5793 5791 5790
5637 5644 5651 5658 5665 5671 5676 5682 5687 5691 5694 5699 5705 5708 5716 5722 5729 5734 5738 5742 5746 5751 5755 5759 5763 5767 5770 5772 5775 5778 5780 5782 5783 5784 5785 5786 5787 5787 5786 5786 5785 5783 5782 5780
5637 5643 5650 5656 5661 5667 5673 5679 5683 5685 5688 5694 5698 5700 5710 5716 5721 5725 5730 5734 5738 5742 5747 5751 5754 5758 5761 5764 5767 5769 5771 5773 5775 5776 5776 5777 5777 5777 5777 5776 5775 5773 5772 5770
5638 5644 5649 5654 5659 5664 5670 5675 5680 5683 5686 5690 5692 5695 5705 5709 5713 5717 5721 5725 5730 5734 5738 5742 5746 5749 5752 5755 5758 5761 5763 5764 5766 5767 5768 5768 5768 5768 5767 5766 5765 5763 5762 5760
5640 5645 5648 5653 5658 5662 5666 5670 5675 5678 5681 5684 5686 5691 5696 5701 5705 5710 5714 5718 5722 5726 5729 5733 5737 5740 5743 5746 5749 5752 5754 5755 5756 5757 5758 5758 5758 5758 5757 5756 5755 5753 5752 5750
5641 5644 5648 5652 5656 5659 5663 5667 5670 5673 5675 5678 5681 5685 5690 5694 5698 5702 5706 5709 5713 5717 5720 5724 5727 5731 5734 5737 5740 5742 5744 5746 5747 5748 5748 5748 5748 5748 5747 5746 5745 5744 5742 5740
5641 5644 5647 5650 5653 5657 5660 5664 5666 5669 5671 5673 5676 5682 5684 5688 5691 5695 5698 5701 5704 5708 5712 5715 5719 5722 5725 5728 5731 5733 5735 5736 5737 5738 5738 5739 5738 5738 5737 5737 5735 5734 5732 5730
5640 5643 5645 5648 5651 5653 5656 5659 5662 5665 5667 5669 5671 5678 5678 5681 5684 5687 5690 5693 5697 5700 5703 5707 5710 5714 5717 5719 5721 5723 5725 5726 5727 5728 5728 5729 5729 5728 5728 5727 5726 5725 5723 5721
5639 5642 5643 5646 5650 5651 5653 5656 5658 5660 5662 5663 5666 5672 5673 5675 5678 5680 5683 5686 5689 5692 5695 5699 5702 5705 5708 5710 5712 5714 5715 5717 5718 5718 5719 5719 5719 5719 5718 5718 5716 5715 5713 5712
5637 5639 5642 5644 5646 5648 5650 5652 5653 5655 5656 5659 5662 5665 5667 5669 5672 5674 5676 5679 5681 5684 5688 5691 5694 5696 5699 5701 5703 5705 5706 5707 5708 5709 5710 5710 5710 5710 5709 5708 5707 5706 5704 5703
5635 5637 5638 5640 5641 5643 5645 5647 5648 5650 5652 5654 5657 5658 5661 5663 5665 5668 5670 5672 5675 5677 5680 5683 5686 5688 5690 5692 5694 5696 5697 5699 5700 5700 5701 5701 5701 5701 5700 5700 5698 5697 5695 5694
5632 5633 5635 5636 5637 5638 5640 5642 5643 5645 5647 5648 5650 5653 5655 5657 5659 5662 5664 5666 5668 5670 5673 5676 5678 5680 5682 5684 5686 5688 5689 5691 5691 5692 5692 5693 5693 5692 5692 5691 5690 5689 5687 5685
5628 5630 5631 5632 5633 5634 5637 5639 5639 5640 5642 5643 5645 5649 5648 5651 5653 5656 5658 5660 5662 5664 5667 5669 5671 5673 5675 5677 5679 5680 5682 5683 5683 5684 5684 5684 5684 5684 5684 5683 5682 5681 5679 5677
5624 5625 5627 5628 5630 5631 5635 5634 5635 5636 5637 5638 5640 5641 5643 5645 5647 5650 5652 5654 5657 5659 5661 5663 5665 5667 5669 5670 5672 5673 5674 5675 5676 5676 5677 5677 5677 5676 5676 5675 5674 5673 5672 5670
5620 5621 5623 5624 5625 5627 5629 5630 5630 5631 5633 5634 5635 5637 5638 5640 5642 5645 5647 5649 5651 5653 5655 5657 5659 5661 5662 5664 5665 5666 5667 5668 5668 5669 5669 5670 5670 5669 5669 5668 5667 5666 5664 5663
5616 5617 5619 5620 5620 5622 5625 5625 5626 5628 5629 5630 5631 5632 5634 5636 5638 5641 5642 5644 5646 5648 5650 5652 5653 5655 5656 5657 5658 5659 5660 5661 5662 5662 5662 5663 5663 5662 5662 5661 5660 5659 5657 5655
5611 5612 5614 5615 5616 5618 5620 5620 5622 5624 5626 5626 5627 5628 5630 5632 5634 5636 5637 5639 5641 5643 5644 5646 5647 5649 5650 5651 5652 5653 5654 5655 5655 5656 5656 5656 5656 5655 5655 5654 5653 5651 5650 5648
5606 5608 5609 5610 5612 5616 5615 5616 5618 5619 5620 5621 5622 5624 5625 5627 5629 5631 5632 5634 5636 5637 5639 5640 5642 5643 5644 5645 5646 5647 5648 5648 5649 5649 5649 5649 5649 5649 5648 5647 5646 5645 5643 5641
5601 5604 5605 5607 5609 5610 5610 5611 5613 5614 5615 5617 5618 5619 5621 5622 5624 5626 5627 5629 5631 5632 5634 5635 5636 5637 5638 5639 5640 5641 5642 5642 5643 5643 5643 5643 5643 5642 5641 5640 5639 5638 5636 5635
5596 5597 5599 5601 5603 5604 5605 5606 5608 5609 5610 5612 5613 5615 5616 5618 5619 5621 5622 5624 5625 5627 5628 5629 5630 5631 5632 5633 5634 5635 5636 5636 5637 5637 5637 5637 5636 5635 5635 5634 5632 5631 5629 5627
5590 5592 5593 5595 5597 5598 5600 5601 5603 5604 5605 5607 5608 5610 5611 5613 5614 5616 5617 5618 5620 5621 5622 5623 5624 5625 5626 5627 5628 5629 5629 5630 5630 5630 5630 5630 5629 5629 5628 5627 5625 5624 5622 5620
5584 5586 5588 5590 5591 5593 5595 5596 5597 5599 5600 5601 5603 5604 5606 5607 5609 5610 5611 5612 5614 5615 5616 5617 5618 5619 5620 5621 5622 5622 5623 5623 5623 5623 5623 5623 5622 5622 5621 5619 5618 5616 5614 5612